Hourly Data Report for August 21, 2020

OTTAWA INTL A
ONTARIO
Current Station Operator: NAVCAN

45°19'00.000" N
75°40'00.000" W
114.90 m
6106001
71628
YOW

Download Data

Hourly Data (August 2020)
Hourly Data Report for August 21, 2020
TIME
LST
Temp Definition
°C
Dew Point Definition
°C
Rel Hum Definition
%
Precip. Amount Definition
mm

Wind Dir Definition
10's deg

Wind Spd Definition
km/h
Visibility Definition
km
Stn Press Definition
kPa
Hmdx Definition


Wind Chill Definition


Weather Definition


00:00 18.6 15.0 79   24 8 24.1 99.69     LegendNANA
01:00 17.8 15.6 87   20 12 12.9 99.67     Rain
02:00 17.2 15.9 92   21 8 24.1 99.65     LegendNANA
03:00 17.2 15.8 91   22 9 24.1 99.62     LegendNANA
04:00 17.2 15.7 91   21 13 24.1 99.62     Mostly Cloudy
05:00 17.1 15.8 92   18 3 24.1 99.64     Moderate Rain
06:00 17.6 16.6 94   22 8 24.1 99.67     LegendNANA
07:00 17.9 16.6 92   24 10 24.1 99.73     Cloudy
08:00 18.5 17.4 93   25 8 24.1 99.75     Rain
09:00 19.2 17.7 91   31 13 24.1 99.78     LegendNANA
10:00 20.4 17.9 86   32 11 24.1 99.81 26   Mostly Cloudy
11:00 21.0 17.4 80   33 10 24.1 99.78 27   LegendNANA
12:00 21.5 17.2 76   30 13 24.1 99.81 27   LegendNANA
13:00 22.2 16.1 68   33 17 24.1 99.80 27   Mostly Cloudy
14:00 22.6 17.0 70   34 15 24.1 99.78 28   LegendNANA
15:00 22.3 16.0 67   31 13 24.1 99.79 27   LegendNANA
16:00 22.6 15.7 65   35 14 24.1 99.80 27   Mainly Clear
17:00 22.7 15.2 62   35 9 24.1 99.78 27   LegendNANA
18:00 22.2 15.3 64   35 10 24.1 99.79 26   LegendNANA
19:00 19.5 14.9 74   4 5 24.1 99.80     Mainly Clear
20:00 17.1 15.2 88   36 2 24.1 99.87     LegendNANA
21:00 17.4 14.6 83   27 4 24.1 99.88     LegendNANA
22:00 16.2 14.2 88   36 2 24.1 99.89     Mainly Clear
23:00 16.5 13.8 84   34 8 24.1 99.87     LegendNANA

Notes on Data Quality.

Legend

  • E = Estimated
  • M = Missing
  • NA = Not Available*
  • [empty] = Indicates an unobserved value
Date modified: